Weather History for Kankakee, IL

Change the Weather History Date:

Tuesday, December 4, 2012

  Actual Average Record
Temperature  
Mean Temperature 49 °F -  
Max Temperature 62 °F 39 °F 63 °F (1973)
Min Temperature 36 °F 23 °F -3 °F (1991)
Degree Days  
Heating Degree Days 16    
Moisture  
Dew Point 42 °F    
Average Humidity 76    
Maximum Humidity 94    
Minimum Humidity 46    
Precipitation  
Precipitation 0.38 in - - ()
Sea Level Pressure  
Sea Level Pressure 30.11 in    
Wind  
Wind Speed 8 mph (WNW)    
Max Wind Speed 20 mph    
Max Gust Speed 20 mph    
Visibility 9 miles    
Events Rain    
Averages and records for this station are not official NWS values.
T = Trace of Precipitation, MM = Missing Value Source: NWS Daily Summary

Daily Weather History Graph

Daily Weather History Graph

Search for Another Location

Airport:

Trip Planner

Search our weather history database for the weather conditions in past years. The results will help you decide how hot, cold, wet, or windy it might be!

Date:

Astronomy

Dec. 04, 2012 Rise Set
Actual Time 7:00 AM CST 4:22 PM CST
Civil Twilight 6:29 AM CST 4:53 PM CST
Nautical Twilight 5:55 AM CST 5:28 PM CST
Astronomical Twilight 5:22 AM CST 6:01 PM CST
Moon 10:12 PM CST (12/4) 10:52 AM CST (12/4)
Length of Visible Light 10h 23m
Length of Day
9h 22m
Waning Gibbous, 69% of the Moon is Illuminated
Dec 4
Waning Gibbous
Dec 6
Last Quarter
Dec 13
New
Dec 19
First Quarter
Dec 28
Full

Hourly Weather History & Observations

Time (CST) Temp. Windchill Dew Point Humidity Pressure Visibility Wind Dir Wind Speed Gust Speed Precip Events Conditions
12:15 AM 62.6 °F - 57.9 °F 85% 29.92 in 10.0 mi SW 19.6 mph - N/A   Overcast
12:35 AM 62.6 °F - 57.7 °F 84% 29.92 in 10.0 mi SW 13.8 mph - N/A   Overcast
12:55 AM 61.7 °F - 58.3 °F 89% 29.92 in 7.0 mi SW 10.4 mph 19.6 mph N/A Rain Rain
1:15 AM 60.6 °F - 57.7 °F 90% 29.92 in 7.0 mi West 10.4 mph - N/A Rain Light Rain
1:35 AM 58.8 °F - 54.1 °F 84% 29.93 in 10.0 mi WNW 9.2 mph - 0.01 in Rain Rain
1:55 AM 56.3 °F - 53.6 °F 91% 29.94 in 4.0 mi West 5.8 mph - 0.04 in Rain Light Rain
2:15 AM 55.8 °F - 53.6 °F 92% 29.95 in 5.0 mi WNW 10.4 mph - N/A   Drizzle
2:35 AM 55.4 °F - 53.6 °F 94% 29.95 in 4.0 mi NW 5.8 mph - N/A   Drizzle
2:55 AM 53.8 °F - 51.6 °F 92% 29.96 in 5.0 mi NW 8.1 mph - 0.01 in   Drizzle
3:15 AM 53.1 °F - 50.4 °F 91% 29.97 in 5.0 mi WNW 5.8 mph - 0.02 in Rain Light Rain
3:35 AM 52.5 °F - 50.0 °F 91% 29.98 in 7.0 mi WNW 6.9 mph - 0.05 in Rain Rain
3:55 AM 51.8 °F - 49.5 °F 92% 29.99 in 7.0 mi WNW 8.1 mph - 0.10 in Rain Rain
4:15 AM 51.3 °F - 49.1 °F 92% 30.00 in 7.0 mi WNW 8.1 mph - 0.05 in Rain Rain
4:35 AM 50.9 °F - 49.1 °F 94% 30.01 in 5.0 mi WNW 6.9 mph - 0.10 in Rain Rain
4:55 AM 50.5 °F - 48.7 °F 94% 30.01 in 7.0 mi NW 6.9 mph - 0.15 in Rain Rain
5:15 AM 50.5 °F - 48.6 °F 93% 30.02 in 7.0 mi NW 6.9 mph - 0.02 in Rain Light Rain
5:35 AM 50.5 °F - 48.2 °F 92% 30.03 in 7.0 mi NNW 6.9 mph - 0.05 in Rain Rain
5:55 AM 50.2 °F - 48.2 °F 93% 30.04 in 7.0 mi North 4.6 mph - 0.07 in Rain Light Rain
6:15 AM 50.4 °F - 47.3 °F 89% 30.05 in 10.0 mi NNW 6.9 mph - 0.01 in   Drizzle
6:35 AM 50.2 °F - 46.2 °F 86% 30.05 in 10.0 mi North 3.5 mph - 0.01 in   Light Drizzle
6:55 AM 49.6 °F - 46.6 °F 89% 30.06 in 10.0 mi Calm Calm - 0.01 in   Light Drizzle
7:15 AM 49.3 °F - 46.6 °F 90% 30.07 in 10.0 mi Calm Calm - N/A   Mostly Cloudy
7:35 AM 49.6 °F - 45.9 °F 87% 30.07 in 10.0 mi Calm Calm - N/A   Mostly Cloudy
7:55 AM 49.5 °F - 45.9 °F 87% 30.09 in 10.0 mi West 3.5 mph - N/A   Scattered Clouds
8:15 AM 49.5 °F - 45.5 °F 86% 30.09 in 10.0 mi Calm Calm - N/A   Scattered Clouds
8:35 AM 49.3 °F - 44.8 °F 84% 30.10 in 10.0 mi WSW 3.5 mph - N/A   Scattered Clouds
8:55 AM 49.8 °F - 46.8 °F 89% 30.12 in 10.0 mi WSW 3.5 mph - N/A   Overcast
9:15 AM 50.2 °F - 44.8 °F 82% 30.12 in 10.0 mi WSW 4.6 mph - N/A   Overcast
9:35 AM 50.4 °F - 46.0 °F 85% 30.12 in 10.0 mi West 3.5 mph - N/A   Overcast
9:55 AM 50.9 °F - 45.1 °F 81% 30.12 in 10.0 mi WNW 4.6 mph - N/A   Overcast
10:15 AM 50.9 °F - 42.1 °F 72% 30.12 in 10.0 mi NW 4.6 mph - N/A   Scattered Clouds
10:35 AM 52.7 °F - 41.2 °F 65% 30.12 in 10.0 mi NW 5.8 mph - N/A   Scattered Clouds
10:55 AM 53.6 °F - 40.5 °F 61% 30.12 in 10.0 mi WNW 6.9 mph - N/A   Mostly Cloudy
11:15 AM 53.8 °F - 39.9 °F 59% 30.12 in 10.0 mi WNW 8.1 mph - N/A   Mostly Cloudy
11:35 AM 54.0 °F - 38.1 °F 55% 30.12 in 10.0 mi NW 9.2 mph - N/A   Clear
11:55 AM 55.4 °F - 39.6 °F 55% 30.12 in 10.0 mi WNW 10.4 mph 16.1 mph N/A   Clear
12:15 PM 55.4 °F - 36.9 °F 50% 30.11 in 10.0 mi NW 8.1 mph 16.1 mph N/A   Clear
12:35 PM 55.8 °F - 36.1 °F 48% 30.12 in 10.0 mi NW 11.5 mph - N/A   Clear
12:55 PM 55.2 °F - 35.4 °F 47% 30.12 in 10.0 mi NW 8.1 mph - N/A   Clear
1:15 PM 55.4 °F - 34.9 °F 46% 30.11 in 10.0 mi NW 9.2 mph - N/A   Clear
1:35 PM 55.2 °F - 36.3 °F 49% 30.11 in 10.0 mi NW 5.8 mph - N/A   Clear
1:55 PM 55.4 °F - 37.8 °F 52% 30.11 in 10.0 mi WNW 4.6 mph - N/A   Clear
2:15 PM 55.6 °F - 36.3 °F 48% 30.11 in 10.0 mi WNW 9.2 mph - N/A   Clear
2:35 PM 56.1 °F - 36.7 °F 48% 30.12 in 10.0 mi WNW 8.1 mph - N/A   Clear
2:55 PM 55.8 °F - 37.4 °F 50% 30.12 in 10.0 mi West 8.1 mph - N/A   Clear
3:15 PM 55.2 °F - 35.6 °F 48% 30.13 in 10.0 mi WNW 9.2 mph - N/A   Clear
3:35 PM 53.1 °F - 39.2 °F 59% 30.14 in 10.0 mi West 5.8 mph - N/A   Clear
3:55 PM 51.4 °F - 39.2 °F 63% 30.14 in 10.0 mi West 5.8 mph - N/A   Clear
4:15 PM 50.9 °F - 37.6 °F 60% 30.15 in 10.0 mi West 5.8 mph - N/A   Clear
4:35 PM 49.1 °F - 37.6 °F 64% 30.15 in 10.0 mi West 4.6 mph - N/A   Clear
4:55 PM 48.0 °F - 37.8 °F 68% 30.16 in 10.0 mi West 5.8 mph - N/A   Clear
5:15 PM 47.3 °F - 37.4 °F 68% 30.17 in 10.0 mi WSW 5.8 mph - N/A   Clear
5:35 PM 46.4 °F 43.5 °F 37.2 °F 70% 30.17 in 10.0 mi WSW 5.8 mph - N/A   Clear
5:55 PM 43.9 °F 40.5 °F 36.9 °F 76% 30.18 in 10.0 mi WSW 5.8 mph - N/A   Clear
6:15 PM 45.9 °F 43.6 °F 36.7 °F 70% 30.18 in 10.0 mi West 4.6 mph - N/A   Clear
6:35 PM 43.7 °F 41.1 °F 36.3 °F 75% 30.18 in 10.0 mi WSW 4.6 mph - N/A   Clear
6:55 PM 42.4 °F 38.1 °F 36.5 °F 79% 30.19 in 10.0 mi West 6.9 mph - N/A   Clear
7:15 PM 41.9 °F 39.0 °F 36.1 °F 80% 30.19 in 10.0 mi West 4.6 mph - N/A   Clear
7:35 PM 42.1 °F 37.7 °F 35.2 °F 77% 30.19 in 10.0 mi West 6.9 mph - N/A   Clear
7:55 PM 41.5 °F 38.6 °F 34.7 °F 77% 30.20 in 10.0 mi WSW 4.6 mph - N/A   Clear
8:15 PM 40.8 °F 38.8 °F 34.3 °F 78% 30.20 in 10.0 mi West 3.5 mph - N/A   Clear
8:35 PM 40.3 °F 38.2 °F 34.2 °F 79% 30.21 in 10.0 mi West 3.5 mph - N/A   Clear
8:55 PM 39.6 °F 34.0 °F 34.0 °F 80% 30.21 in 10.0 mi West 8.1 mph - N/A   Clear
9:15 PM 38.3 °F 33.2 °F 33.8 °F 84% 30.22 in 10.0 mi West 6.9 mph - N/A   Clear
9:35 PM 39.2 °F 34.2 °F 33.6 °F 80% 30.22 in 10.0 mi West 6.9 mph - N/A   Clear
9:55 PM 38.3 °F 32.5 °F 33.1 °F 81% 30.23 in 10.0 mi West 8.1 mph - N/A   Clear
10:15 PM 39.2 °F 34.2 °F 33.3 °F 79% 30.24 in 10.0 mi West 6.9 mph - N/A   Clear
10:35 PM 37.4 °F 32.8 °F 32.9 °F 84% 30.25 in 10.0 mi West 5.8 mph - N/A   Clear
10:55 PM 36.1 °F 32.3 °F 32.9 °F 88% 30.26 in 10.0 mi West 4.6 mph - N/A   Clear
11:06 PM 37.4 °F 32.8 °F 33.8 °F 87% 30.27 in 10.0 mi NW 5.8 mph - N/A   Clear
11:15 PM 40.5 °F 35.8 °F 32.9 °F 74% 30.27 in 10.0 mi NW 6.9 mph - N/A   Clear
11:35 PM 41.2 °F 37.3 °F 32.5 °F 71% 30.27 in 10.0 mi NW 5.8 mph - N/A   Clear
11:55 PM 41.4 °F 36.8 °F 32.0 °F 69% 30.27 in 10.0 mi NW 6.9 mph - N/A   Clear